DW7304 Weather Reports


Display with metric or nautical units.
time (UTC)temp
F
wind
direction
speed
MPH
gust
MPH
rain 1hr
in
rain 24hr
in
rain mn
in
humidity
%
barometer
mb
20200812144130 81 202 3.0 7.0 0.00 0.00 0.00 60 1017.8
20200812143230 80 202 2.0 5.0 0.00 0.00 0.00 61 1018.0
20200812142330 80 170 4.0 8.0 0.00 0.00 0.00 60 1018.0
20200812141431 80 112 3.0 6.0 0.00 0.00 0.00 61 1017.8
20200812140531 80 104 4.0 7.0 0.00 0.00 0.00 60 1018.0
20200812135630 80 43 1.0 4.0 0.00 0.00 0.00 57 1017.7
20200812134730 80 29 1.0 4.0 0.00 0.00 0.00 58 1017.8
20200812133835 80 360 1.0 3.0 0.00 0.00 0.00 58 1017.9
20200812132934 81 7 2.0 7.0 0.00 0.00 0.00 56 1017.9
20200812132030 82 4 3.0 8.0 0.00 0.00 0.00 57 1018.1
20200812131131 81 332 3.0 10.0 0.00 0.00 0.00 61 1018.0
20200812130232 81 135 2.0 7.0 0.00 0.00 0.00 61 1018.0
20200812125336 80 125 2.0 6.0 0.00 0.00 0.00 60 1018.2
20200812124431 80 59 3.0 12.0 0.00 0.00 0.00 58 1018.1
20200812123530 79 208 1.0 5.0 0.00 0.00 0.00 62 1018.4
20200812122630 78 168 4.0 11.0 0.00 0.00 0.00 63 1018.2
20200812121732 79 152 4.0 11.0 0.00 0.00 0.00 60 1018.3
20200812120902 80 167 3.0 10.0 0.00 0.00 0.00 61 1018.3
20200812115930 80 157 3.0 9.0 0.00 0.00 0.00 62 1018.2
20200812115030 80 71 3.0 12.0 0.00 0.00 0.00 65 1018.1
20200812114130 79 97 3.0 7.0 0.00 0.00 0.00 61 1018.2
20200812113231 79 157 4.0 10.0 0.00 0.00 0.00 65 1018.2
20200812112330 78 164 4.0 10.0 0.00 0.00 0.00 64 1018.2
20200812111430 78 161 5.0 10.0 0.00 0.00 0.00 64 1018.2
20200812110531 78 91 4.0 12.0 0.00 0.00 0.00 64 1018.0
20200812105630 78 137 3.0 9.0 0.00 0.00 0.00 67 1018.0
20200812104730 78 154 4.0 9.0 0.00 0.00 0.00 65 1018.1
20200812103836 76 104 4.0 11.0 0.00 0.00 0.00 67 1018.1
20200812102930 76 106 5.0 11.0 0.00 0.00 0.00 67 1018.0
20200812102030 77 49 4.0 14.0 0.00 0.00 0.00 65 1017.9
20200812101131 76 95 4.0 13.0 0.00 0.00 0.00 67 1017.8
20200812100232 76 102 5.0 12.0 0.00 0.00 0.00 68 1017.8
20200812095333 76 106 4.0 10.0 0.00 0.00 0.00 68 1017.8
20200812094433 74 104 6.0 17.0 0.00 0.00 0.00 70 1017.7
20200812093530 75 123 5.0 14.0 0.00 0.00 0.00 70 1017.7
20200812092632 75 70 4.0 11.0 0.00 0.00 0.00 69 1017.6
20200812091730 74 76 5.0 13.0 0.00 0.00 0.00 69 1017.7
20200812090830 73 91 5.0 11.0 0.00 0.00 0.00 71 1017.7
20200812085930 74 66 6.0 15.0 0.00 0.00 0.00 70 1017.8
20200812085030 74 37 5.0 14.0 0.00 0.00 0.00 70 1017.8
20200812084130 74 165 4.0 18.0 0.00 0.00 0.00 70 1017.7
20200812083230 73 103 4.0 11.0 0.00 0.00 0.00 71 1017.6
20200812082331 74 58 5.0 17.0 0.00 0.00 0.00 71 1017.6
20200812081430 74 80 5.0 17.0 0.00 0.00 0.00 70 1017.7
20200812080531 73 39 5.0 16.0 0.00 0.00 0.00 71 1017.8
20200812075630 73 38 5.0 14.0 0.00 0.00 0.00 71 1017.7
20200812074730 72 67 7.0 16.0 0.00 0.00 0.00 72 1017.4
20200812073832 72 113 5.0 16.0 0.00 0.00 0.00 72 1017.5
20200812072930 71 61 5.0 17.0 0.00 0.00 0.00 73 1017.6
20200812072032 71 143 6.0 17.0 0.00 0.00 0.00 72 1017.7
20200812071130 71 63 5.0 15.0 0.00 0.00 0.00 73 1017.5
20200812070232 71 145 5.0 11.0 0.00 0.00 0.00 74 1017.4
20200812065331 70 208 4.0 12.0 0.00 0.00 0.00 74 1017.2
20200812064431 70 210 4.0 11.0 0.00 0.00 0.00 74 1017.5
20200812063531 70 180 4.0 11.0 0.00 0.00 0.00 74 1017.1
20200812062630 70 119 5.0 15.0 0.00 0.00 0.00 74 1017.1
20200812061730 70 190 5.0 14.0 0.00 0.00 0.00 74 1017.1
20200812060830 70 169 4.0 13.0 0.00 0.00 0.00 75 1017.3
20200812055930 69 149 4.0 10.0 0.00 0.00 0.00 76 1017.1
20200812055030 68 240 5.0 12.0 0.00 0.00 0.00 78 1017.1
20200812054130 68 48 4.0 13.0 0.00 0.00 0.00 78 1017.1
20200812053232 68 232 4.0 12.0 0.00 0.00 0.00 78 1017.2
20200812052330 68 223 4.0 9.0 0.00 0.00 0.00 78 1016.9
20200812051430 68 185 4.0 18.0 0.00 0.00 0.00 78 1016.8
20200812050530 68 196 5.0 11.0 0.00 0.00 0.00 79 1016.9
20200812045632 68 155 6.0 16.0 0.00 0.00 0.00 78 1016.8
20200812044731 68 280 5.0 15.0 0.00 0.00 0.00 78 1016.7
20200812043831 68 263 4.0 11.0 0.00 0.00 0.00 78 1016.8
20200812042930 68 178 4.0 13.0 0.00 0.00 0.00 78 1016.8
20200812042030 68 241 4.0 10.0 0.00 0.00 0.00 77 1016.8
20200812041131 68 230 4.0 11.0 0.00 0.00 0.00 77 1016.6
20200812040230 68 238 4.0 9.0 0.00 0.00 0.00 77 1016.5
20200812035330 68 276 4.0 12.0 0.00 0.00 0.00 77 1016.4
20200812034430 68 238 4.0 10.0 0.00 0.00 0.00 77 1016.4
20200812033530 68 214 4.0 8.0 0.00 0.00 0.00 77 1016.3
20200812032630 68 202 4.0 10.0 0.00 0.00 0.00 77 1016.4
20200812031731 68 221 4.0 11.0 0.00 0.00 0.00 77 1016.4
20200812030832 68 282 4.0 11.0 0.00 0.00 0.00 77 1016.3
20200812025932 68 314 4.0 13.0 0.00 0.00 0.00 77 1016.4
20200812025030 68 268 4.0 12.0 0.00 0.00 0.00 76 1016.3
20200812024130 68 224 4.0 12.0 0.00 0.00 0.00 77 1016.4
20200812023235 68 223 5.0 10.0 0.00 0.00 0.00 77 1016.4
20200812022330 68 305 4.0 12.0 0.00 0.00 0.00 77 1016.4
20200812021433 68 213 4.0 10.0 0.00 0.00 0.00 76 1016.4
20200812020531 68 206 5.0 14.0 0.00 0.00 0.00 75 1016.5
20200812015630 68 305 4.0 10.0 0.00 0.00 0.00 75 1016.5
20200812014730 68 248 4.0 12.0 0.00 0.00 0.00 75 1016.7
20200812013830 68 263 3.0 11.0 0.00 0.00 0.00 75 1016.6
20200812012931 68 253 3.0 9.0 0.00 0.00 0.00 74 1016.8
20200812012031 68 243 3.0 8.0 0.00 0.00 0.00 74 1016.9
20200812011130 68 201 3.0 10.0 0.00 0.00 0.00 75 1016.8
20200812010232 68 195 4.0 10.0 0.00 0.00 0.00 75 1016.8
20200812005330 68 194 4.0 10.0 0.00 0.00 0.00 76 1016.7
20200812004431 68 171 3.0 6.0 0.00 0.00 0.00 76 1016.8
20200812003530 67 101 2.0 6.0 0.00 0.00 0.00 76 1017.0
20200812002631 67 353 1.0 4.0 0.00 0.00 0.00 75 1017.2
20200812001732 67 347 2.0 8.0 0.00 0.00 0.00 75 1017.2
20200812000832 67 319 3.0 11.0 0.00 0.00 0.00 74 1017.3
20200811235932 69 281 4.0 11.0 0.00 0.00 0.00 71 1017.5
20200811235030 69 237 5.0 13.0 0.00 0.00 0.00 70 1017.2
20200811234132 69 309 4.0 14.0 0.00 0.00 0.00 69 1017.2
20200811233231 69 332 4.0 15.0 0.00 0.00 0.00 69 1017.4
20200811232330 69 194 4.0 12.0 0.00 0.00 0.00 69 1017.5
20200811231432 69 210 3.0 8.0 0.00 0.00 0.00 68 1017.4
20200811230530 69 187 5.0 11.0 0.00 0.00 0.00 68 1017.3
20200811225631 69 160 5.0 11.0 0.00 0.00 0.00 68 1017.4
20200811224730 69 197 4.0 14.0 0.00 0.00 0.00 67 1017.5
20200811223833 70 242 4.0 9.0 0.00 0.00 0.00 66 1017.4
20200811222930 70 133 4.0 11.0 0.00 0.00 0.00 66 1017.7
20200811222030 70 156 5.0 14.0 0.00 0.00 0.00 66 1017.5
20200811221132 70 174 4.0 9.0 0.00 0.00 0.00 66 1017.5
20200811220232 70 270 3.0 13.0 0.00 0.00 0.00 66 1017.6
20200811204130 69 295 2.0 5.0 0.00 0.00 0.00 68 1017.6
20200811203230 68 270 2.0 6.0 0.00 0.00 0.00 71 1017.7
20200811202331 69 270 3.0 5.0 0.00 0.00 0.00 69 1017.9
20200811201433 69 283 3.0 8.0 0.00 0.00 0.00 66 1017.6
20200811200530 69 299 3.0 6.0 0.00 0.00 0.00 68 1017.4
20200811195630 69 287 2.0 6.0 0.00 0.00 0.00 69 1017.4
20200811194732 68 270 1.0 4.0 0.00 0.00 0.00 73 1017.4
20200811193833 69 236 2.0 4.0 0.00 0.00 0.00 72 1017.5
20200811192933 70 225 1.0 4.0 0.00 0.00 0.00 70 1017.6
20200811192031 70 225 1.0 4.0 0.00 0.00 0.00 68 1017.5
20200811191130 70 221 2.0 4.0 0.00 0.00 0.00 67 1017.3
20200811190231 69 356 1.0 3.0 0.00 0.00 0.00 70 1017.1
20200811185332 70 11 2.0 5.0 0.00 0.00 0.00 69 1017.2
20200811184430 71 303 2.0 6.0 0.00 0.00 0.00 67 1017.4
20200811183530 71 278 2.0 5.0 0.00 0.00 0.00 67 1017.0
20200811182636 71 357 2.0 6.0 0.00 0.00 0.00 67 1016.9
20200811181732 71 2 3.0 7.0 0.00 0.00 0.00 67 1017.1
20200811180830 71 348 2.0 7.0 0.00 0.00 0.00 67 1016.9
20200811175931 71 338 2.0 5.0 0.00 0.00 0.00 67 1016.8
20200811175041 71 226 3.0 6.0 0.00 0.00 0.00 67 1017.0
20200811174131 71 271 3.0 6.0 0.00 0.00 0.00 67 1017.3
20200811173230 71 360 3.0 6.0 0.00 0.00 0.00 68 1017.1
20200811172331 71 339 2.0 7.0 0.00 0.00 0.00 70 1016.8
20200811171431 70 16 4.0 11.0 0.00 0.00 0.00 71 1016.9
20200811170533 71 14 5.0 12.0 0.00 0.00 0.00 71 1016.7
20200811165633 71 11 6.0 12.0 0.00 0.00 0.00 70 1016.5
20200811164741 71 5 4.0 9.0 0.00 0.00 0.00 70 1016.7
20200811163832 71 37 1.0 9.0 0.00 0.00 0.00 71 1016.5
20200811162930 71 355 3.0 9.0 0.00 0.00 0.00 71 1016.8
20200811162031 71 263 2.0 5.0 0.00 0.00 0.00 72 1016.8
20200811161133 71 247 2.0 5.0 0.00 0.00 0.00 72 1017.1
20200811160231 71 261 2.0 11.0 0.00 0.00 0.00 71 1017.2
20200811155331 71 336 2.0 11.0 0.00 0.00 0.00 71 1017.1
20200811154430 70 292 1.0 4.0 0.00 0.00 0.00 72 1017.4
20200811153530 71 292 2.0 4.0 0.00 0.00 0.00 72 1017.5
20200811152633 72 296 3.0 7.0 0.00 0.00 0.00 71 1017.6
20200811151730 72 8 4.0 9.0 0.00 0.00 0.00 67 1017.5
20200811150830 71 157 4.0 10.0 0.00 0.00 0.00 67 1017.4
20200811145932 71 184 4.0 10.0 0.00 0.00 0.00 69 1017.5
20200811145032 71 147 4.0 11.0 0.00 0.00 0.00 71 1017.5